User: anonymous   Login
Location: Vancouver
(49.2500°N, 123.1330°W)
Time: 01:21:01
(UTC-07:00)
Language:

ERS-2 - Orbit

View from above orbital plane
View from above orbital plane
View from above satellite
View from above satellite

Ground track
Ground track

The orbit data is extracted from the following two-line orbital elements,

1 23560U 95021A   16273.11612729  .00004166  00000-0  19964-3 0  9990
2 23560  98.5223 225.0646 0005276 104.4193 255.7625 15.19597679135723
Epoch (UTC): 29 September 2016 02:47:13
Eccentricity: 0.0005276
inclination: 98.5223°
perigee height: 503 km
apogee height: 510 km
right ascension of ascending node: 225.0646°
argument of perigee: 104.4193°
revolutions per day: 15.19597679
mean anomaly at epoch: 255.7625°
orbit number at epoch: 13572

The dashed part of the orbit path shows where the satellite is in the earth's shadow,  

DLR